Location: Unspecified
(0.0000°N, 0.0000°E)
Time: 04:40:32
(UTC+00:00)

CUTE 1.7 + AOD 2 - Pass Details

Date: 26 May 2026
Orbit: 531 x 545 km, 97.8° (Epoch: 11 June)

Event Time Altitude Azimuth Distance (km) Brightness Sun altitude
Rises 04:50:06 0° 345° (NNW) 2,662 ? -15.6°
Reaches altitude 10° 04:52:40 10° 327° (NNW) 1,778 ? -15.0°
Enters shadow 04:55:19 19° 283° (WNW) 1,317 ? -14.4°
